Location: Campillo
(40.8621°N, 4.2488°W)
Time: 22:54:13
(UTC+00:00)

USA 245 - Pass Details

Date: 25 September 2021
Orbit: 268 x 1012 km, 97.9° (Epoch: 15 October)

Event Time Altitude Azimuth Distance (km) Brightness Sun altitude
Exits shadow 21:04:46 13° 4° (N) 1,882 6.3 -32.7°
Drops below altitude 10° 21:05:20 10° 1° (N) 2,108 6.6 -32.8°
Sets 21:07:58 0° 354° (N) 3,168 7.7 -33.2°
